STARLINK-32577, 62044

Orbit data source: Space-Track

STARLINK-32577, 62044 is a payload satellite owned by SpaceX/Seattle (US) in LEO that was launched on Thu, 21 Nov 2024 UTC via an FALCON 9 launch vehicle from the Air Force Eastern Test Range (AFETR). Payload-class satellites include a variety of spacecraft equipped with specific instruments for various scientific and technological missions. These include communications satellites like Starlink; space stations such as the ISS; scientific satellites like the Hubble; Earth observation satellites from companies like Planet Labs, Umbra, and HawkEye 360; GPS; miniature CubeSats for education and research; and military/defense satellites.

Loading next visibility...
Identifier
62044, 2024-216N
Orbit
LEO
Last TLE update
12 hours ago
Origin
Manufacturer
SpaceX/Seattle
Mission
Operational Commercial Communications
Bus & Motor
STARLINK V2M, Unknown motor
Mass
730 kg wet, ~700 kg dry
Launch date (UTC)
2024-11-21 (7 months ago)
Launch vehicle
FALCON 9
Launch site
Air Force Eastern Test Range (AFETR)
Object type
Payload
Rocket body
Debris
Shape & HBR
Box + 2 Pan, 29 m
Radar Cross Section
36.964 m², Large (>1 m²)

Expand to show TLE details & history

TLE from 12 hours ago
0 STARLINK-32577
1 62044U 24216N   25181.88638154  .00016926  00000-0  62281-3 0  9997
2 62044  43.0021 245.4645 0001867 277.4557  82.6082 15.27599731 35303
Epoch: 2025-06-30T21:16Z
TLE epoch observation values (Epoch: 2025-06-30T21:16:23.365Z)
Latitude
-0.00003°
Longitude
7.17736°
Altitude
482.601 km
Speed
7.626 km/s
True Right ascension
16h 21m 51s
True Declination
0° 00' 00"
Sunlit
Object was in full shadow at epoch
Visualization orbit readout
Latitude
-10.89098°
Longitude
-163.76983°
Altitude
484.646 km
Speed
7.624 km/s
Apparent Right ascension
06h 31m 58s
Apparent Declination
-27° 32' 15"
Sunlit
Object is in daylight
Visualization observer readout
Local Sidereal Time
20:44:55
Azimuth
75.987° E
Elevation
-59.939°
Doppler factor
1
Orbital elements
Apogee altitude
486.216 km
Perigee altitude
483.654 km
Semi-major axis
6,863.072 km
Eccentricity
0.00019
Inclination
43.0021°
RAAN
245.4645°
Arg. of periapsis
277.4557°
True anomaly
Unknown
Mean anomaly
82.6082°
Eccentric anomaly
Unknown
Mean motion
3.81738 °/min
Orbital period
94.31 mins
BSTAR
0.00062281
Loading maneuver chart data...
Loading SW <> Apogee altitude chart data...
Loading historical data...
Loading historical data...
Loading historical data...
Loading historical data...
Loading historical data...
Loading historical data...
Loading historical data...

STARLINK-32577 Visibility forecast

Observer location: undefined°, undefined°

Span
Click to sort rows by Start time (UTC) header in descending order
Start Az.
Max El. time (UTC)
Max El. Az.
Max El.
End time (UTC)
End Az.
7 mins2025-07-01 10:08:41.787Z279.279° WNW2025-07-01 10:11:41.787Z326.315° NNW36.644°2025-07-01 10:15:41.787Z73.961° E
6 mins2025-07-01 11:48:41.787Z291.349° WNW2025-07-01 11:51:41.787Z57.371° ENE42.603°2025-07-01 11:54:41.787Z99.24° ESE
4 mins2025-07-01 13:28:41.787Z253.157° W2025-07-01 13:29:41.787Z227.05° WSW27.377°2025-07-01 13:32:41.787Z153.373° SSE
6 mins2025-07-02 08:02:41.787Z242.469° WSW2025-07-02 08:05:41.787Z103.371° ESE42.545°2025-07-02 08:08:41.787Z73.769° E
|